STARLINK-34351 (64387 NORAD) Tracking and Keplerian Element Data

This shows tracking and keplerian element data for the satellite.

Feedback or suggestion? Click here.




ElementValue
Catalog64387
NameSTARLINK-34351
Epoch Orbit3030
Epoch Day354.1310495
Epoch Year2025
RAAN268.7342
Inclination43.0003
Eccentricity0.0001756
Argument of Perigee261.9527
Mean Anonmoly98.1125
Mean Motion15.27583371
Decay Rate0.00024828
L11 64387U 25127T 25354.13104950 .00024828 00000+0 90860-3 0 9996
L22 64387 43.0003 268.7342 0001756 261.9527 98.1125 15.27583371 30307



Live tracking and technical data element details for STARLINK-34351 (NORAD 64387). STARLINK-34351 can be tracked NOW for your location showing map with azimuth and elevation plus other details from your city location.







IsCatalogInMostPopularTable: catalog: 64387, numindb: 12
Update: records affected: 1



GetName: 64387 STARLINK-34351

Hit Count: updated at: Sun, 19 Apr 2026 07:42:07 GMT